Time,TemperatureF,DewpointF,PressureIn,WindDirection,WindDirectionDegrees,WindSpeedMPH,WindSpeedGustMPH,Humidity,HourlyPrecipIn,Conditions,Clouds,dailyrainin,SoftwareType,DateUTC
2013-06-04 00:03:00,52.0,50.0,30.10,WSW,243,0.0,0.0,93,0.03,,,-99.99,,2013-06-04 04:03:00,
2013-06-04 00:13:00,52.0,50.0,30.10,WSW,243,0.0,0.0,93,0.03,,,-99.99,,2013-06-04 04:13:00,
2013-06-04 00:23:00,51.0,49.0,30.11,WSW,243,0.0,0.0,94,0.03,,,-99.99,,2013-06-04 04:23:00,
2013-06-04 00:33:00,51.0,49.0,30.12,WSW,243,0.0,0.0,94,0.03,,,-99.99,,2013-06-04 04:33:00,
2013-06-04 00:42:00,51.0,49.0,30.12,WSW,243,0.0,0.0,94,0.03,,,-99.99,,2013-06-04 04:42:00,
2013-06-04 00:53:00,50.0,49.0,30.12,WSW,243,0.0,0.0,95,0.03,,,-99.99,,2013-06-04 04:53:00,
2013-06-04 01:02:00,51.0,50.0,30.12,WSW,243,0.0,0.0,95,0.03,,,-99.99,,2013-06-04 05:02:00,
2013-06-04 01:12:00,51.0,50.0,30.12,WSW,243,0.0,0.0,95,0.03,,,-99.99,,2013-06-04 05:12:00,
2013-06-04 01:22:00,50.0,49.0,30.13,North,357,5.0,0.0,95,0.03,,,-99.99,,2013-06-04 05:22:00,
2013-06-04 01:32:00,51.0,49.0,30.13,NNE,17,5.0,0.0,93,0.03,,,-99.99,,2013-06-04 05:32:00,
2013-06-04 01:42:00,51.0,49.0,30.13,NNE,17,5.0,0.0,93,0.03,,,-99.99,,2013-06-04 05:42:00,
2013-06-04 01:52:00,51.0,49.0,30.13,North,0,1.0,0.0,92,0.03,,,-99.99,,2013-06-04 05:52:00,
2013-06-04 02:02:00,51.0,49.0,30.14,North,0,0.0,0.0,92,0.03,,,-99.99,,2013-06-04 06:02:00,
2013-06-04 02:12:00,51.0,49.0,30.14,North,0,0.0,0.0,92,0.03,,,-99.99,,2013-06-04 06:12:00,
2013-06-04 02:22:00,51.0,49.0,30.14,North,359,3.0,0.0,92,0.03,,,-99.99,,2013-06-04 06:22:00,
2013-06-04 02:32:00,51.0,49.0,30.14,North,359,0.0,0.0,92,0.03,,,-99.99,,2013-06-04 06:32:00,
2013-06-04 02:42:00,51.0,49.0,30.14,North,359,0.0,0.0,92,0.03,,,-99.99,,2013-06-04 06:42:00,
2013-06-04 02:52:00,51.0,48.0,30.15,NNW,342,6.0,0.0,90,0.03,,,-99.99,,2013-06-04 06:52:00,
2013-06-04 03:02:00,51.0,48.0,30.14,NNE,18,6.0,0.0,90,0.03,,,-99.99,,2013-06-04 07:02:00,
2013-06-04 03:13:00,51.0,48.0,30.14,NNE,18,6.0,0.0,90,0.03,,,-99.99,,2013-06-04 07:13:00,
2013-06-04 03:22:00,51.0,48.0,30.14,NNE,23,5.0,0.0,91,0.03,,,-99.99,,2013-06-04 07:22:00,
2013-06-04 03:32:00,50.0,48.0,30.14,NE,45,3.0,0.0,93,0.03,,,-99.99,,2013-06-04 07:32:00,
2013-06-04 03:42:00,50.0,48.0,30.14,NE,45,3.0,0.0,93,0.03,,,-99.99,,2013-06-04 07:42:00,
2013-06-04 03:52:00,50.0,48.0,30.14,NE,45,3.0,0.0,93,0.03,,,-99.99,,2013-06-04 07:52:00,
2013-06-04 04:02:00,49.0,47.0,30.14,NE,45,0.0,0.0,94,0.03,,,-99.99,,2013-06-04 08:02:00,
2013-06-04 04:12:00,49.0,47.0,30.14,NE,45,0.0,0.0,94,0.03,,,-99.99,,2013-06-04 08:12:00,
2013-06-04 04:22:00,49.0,47.0,30.14,NE,45,0.0,0.0,94,0.03,,,-99.99,,2013-06-04 08:22:00,
2013-06-04 04:32:00,48.0,47.0,30.14,NE,45,5.0,0.0,97,0.03,,,-99.99,,2013-06-04 08:32:00,
2013-06-04 04:42:00,48.0,47.0,30.14,NE,45,5.0,0.0,97,0.03,,,-99.99,,2013-06-04 08:42:00,
2013-06-04 04:52:00,48.0,47.0,30.15,NNE,27,5.0,0.0,97,0.03,,,-99.99,,2013-06-04 08:52:00,
2013-06-04 05:02:00,48.0,47.0,30.15,NNE,27,5.0,0.0,97,0.03,,,-99.99,,2013-06-04 09:02:00,
2013-06-04 05:12:00,48.0,47.0,30.15,NNE,27,5.0,0.0,97,0.03,,,-99.99,,2013-06-04 09:12:00,
2013-06-04 05:22:00,48.0,47.0,30.14,NE,38,5.0,0.0,97,0.03,,,-99.99,,2013-06-04 09:22:00,
2013-06-04 05:33:00,47.0,46.0,30.14,NE,38,0.0,0.0,96,0.03,,,-99.99,,2013-06-04 09:33:00,
2013-06-04 05:43:00,47.0,46.0,30.14,NE,38,0.0,0.0,96,0.03,,,-99.99,,2013-06-04 09:43:00,
2013-06-04 05:53:00,47.0,46.0,30.15,NE,38,0.0,0.0,97,0.03,,,-99.99,,2013-06-04 09:53:00,
2013-06-04 06:03:00,47.0,46.0,30.15,NE,38,0.0,0.0,98,0.03,,,-99.99,,2013-06-04 10:03:00,
2013-06-04 06:12:00,47.0,46.0,30.15,NE,38,0.0,0.0,98,0.03,,,-99.99,,2013-06-04 10:12:00,
2013-06-04 06:23:00,46.0,45.0,30.15,NE,38,0.0,0.0,98,0.03,,,-99.99,,2013-06-04 10:23:00,
2013-06-04 06:33:00,46.0,45.0,30.16,NE,56,4.0,0.0,97,0.03,,,-99.99,,2013-06-04 10:33:00,
2013-06-04 06:42:00,46.0,45.0,30.16,NE,56,4.0,0.0,97,0.03,,,-99.99,,2013-06-04 10:42:00,
2013-06-04 06:52:00,47.0,46.0,30.17,NE,56,0.0,0.0,96,0.03,,,-99.99,,2013-06-04 10:52:00,
2013-06-04 07:02:00,47.0,46.0,30.17,SSE,162,2.0,0.0,95,0.03,,,-99.99,,2013-06-04 11:02:00,
2013-06-04 07:12:00,47.0,46.0,30.17,SSE,162,2.0,0.0,95,0.03,,,-99.99,,2013-06-04 11:12:00,
2013-06-04 07:22:00,47.0,46.0,30.18,SSE,162,0.0,0.0,95,0.03,,,-99.99,,2013-06-04 11:22:00,
2013-06-04 07:32:00,47.0,45.0,30.18,SSE,162,0.0,0.0,94,0.03,,,-99.99,,2013-06-04 11:32:00,
2013-06-04 07:42:00,47.0,45.0,30.18,SSE,162,0.0,0.0,94,0.03,,,-99.99,,2013-06-04 11:42:00,
2013-06-04 07:52:00,47.0,45.0,30.18,East,86,2.0,0.0,94,0.03,,,-99.99,,2013-06-04 11:52:00,
2013-06-04 08:02:00,48.0,46.0,30.18,East,100,3.0,0.0,94,0.03,,,-99.99,,2013-06-04 12:02:00,
2013-06-04 08:12:00,48.0,46.0,30.18,East,100,3.0,0.0,94,0.03,,,-99.99,,2013-06-04 12:12:00,
2013-06-04 08:22:00,49.0,47.0,30.19,East,86,5.0,0.0,93,0.03,,,-99.99,,2013-06-04 12:22:00,
2013-06-04 08:32:00,51.0,48.0,30.19,East,98,5.0,0.0,90,0.03,,,-99.99,,2013-06-04 12:32:00,
2013-06-04 08:42:00,51.0,48.0,30.19,East,98,5.0,0.0,90,0.03,,,-99.99,,2013-06-04 12:42:00,
2013-06-04 08:52:00,52.0,48.0,30.19,ESE,117,5.0,0.0,86,0.03,,,-99.99,,2013-06-04 12:52:00,
2013-06-04 09:03:00,52.0,48.0,30.19,ESE,117,5.0,0.0,86,0.03,,,-99.99,,2013-06-04 13:03:00,
2013-06-04 09:12:00,52.0,48.0,30.19,ESE,117,5.0,0.0,86,0.03,,,-99.99,,2013-06-04 13:12:00,
2013-06-04 09:22:00,54.0,48.0,30.20,East,100,4.0,0.0,80,0.03,,,-99.99,,2013-06-04 13:22:00,
2013-06-04 09:32:00,56.0,49.0,30.19,East,80,6.0,0.0,76,0.03,,,-99.99,,2013-06-04 13:32:00,
2013-06-04 09:42:00,56.0,49.0,30.19,East,80,6.0,0.0,76,0.03,,,-99.99,,2013-06-04 13:42:00,
2013-06-04 09:52:00,57.0,47.0,30.19,East,98,7.0,0.0,68,0.03,,,-99.99,,2013-06-04 13:52:00,
2013-06-04 10:02:00,57.0,47.0,30.19,East,98,7.0,0.0,68,0.03,,,-99.99,,2013-06-04 14:02:00,
2013-06-04 10:12:00,57.0,47.0,30.19,East,98,7.0,0.0,68,0.03,,,-99.99,,2013-06-04 14:12:00,
2013-06-04 10:22:00,58.0,45.0,30.20,NE,53,9.0,0.0,63,0.03,,,-99.99,,2013-06-04 14:22:00,
2013-06-04 10:32:00,58.0,45.0,30.20,NE,53,9.0,0.0,63,0.03,,,-99.99,,2013-06-04 14:32:00,
2013-06-04 10:43:00,58.0,45.0,30.20,NE,53,9.0,0.0,63,0.03,,,-99.99,,2013-06-04 14:43:00,
2013-06-04 10:52:00,60.0,45.0,30.19,SE,128,4.0,0.0,58,0.03,,,-99.99,,2013-06-04 14:52:00,
2013-06-04 11:02:00,60.0,44.0,30.20,SE,145,5.0,0.0,55,0.03,,,-99.99,,2013-06-04 15:02:00,
2013-06-04 11:03:00,62.0,46.0,30.19,South,181,5.0,0.0,56,0.03,,,-99.99,,2013-06-04 15:03:00,
2013-06-04 11:12:00,60.0,44.0,30.20,SE,145,5.0,0.0,55,0.03,,,-99.99,,2013-06-04 15:12:00,
2013-06-04 11:22:00,62.0,46.0,30.19,South,181,5.0,0.0,56,0.03,,,-99.99,,2013-06-04 15:22:00,
2013-06-04 11:33:00,62.0,46.0,30.19,South,181,5.0,0.0,56,0.03,,,-99.99,,2013-06-04 15:33:00,
2013-06-04 11:42:00,62.0,46.0,30.19,South,181,5.0,0.0,56,0.03,,,-99.99,,2013-06-04 15:42:00,
2013-06-04 11:53:00,62.0,46.0,30.19,South,181,5.0,0.0,56,0.03,,,-99.99,,2013-06-04 15:53:00,
2013-06-04 12:23:00,64.0,45.0,30.19,NE,52,5.0,0.0,51,0.03,,,-99.99,,2013-06-04 16:23:00,
2013-06-04 12:33:00,64.0,45.0,30.19,NE,52,5.0,0.0,51,0.03,,,-99.99,,2013-06-04 16:33:00,
2013-06-04 12:42:00,64.0,45.0,30.19,NE,52,5.0,0.0,51,0.03,,,-99.99,,2013-06-04 16:42:00,
2013-06-04 12:53:00,64.0,45.0,30.19,NE,52,5.0,0.0,51,0.03,,,-99.99,,2013-06-04 16:53:00,
2013-06-04 13:03:00,65.0,46.0,30.19,North,350,5.0,0.0,51,0.03,,,-99.99,,2013-06-04 17:03:00,
2013-06-04 13:12:00,65.0,46.0,30.19,North,350,5.0,0.0,51,0.03,,,-99.99,,2013-06-04 17:12:00,
2013-06-04 13:23:00,65.0,46.0,30.19,North,350,5.0,0.0,51,0.03,,,-99.99,,2013-06-04 17:23:00,
2013-06-04 13:33:00,65.0,46.0,30.19,North,350,5.0,0.0,51,0.03,,,-99.99,,2013-06-04 17:33:00,
2013-06-04 13:52:00,67.0,48.0,30.19,SW,224,5.0,0.0,50,0.03,,,-99.99,,2013-06-04 17:52:00,
2013-06-04 14:02:00,67.0,48.0,30.19,SW,224,5.0,0.0,50,0.03,,,-99.99,,2013-06-04 18:02:00,
2013-06-04 14:12:00,67.0,48.0,30.19,SW,224,5.0,0.0,50,0.03,,,-99.99,,2013-06-04 18:12:00,
2013-06-04 14:22:00,67.0,48.0,30.19,SW,224,5.0,0.0,50,0.03,,,-99.99,,2013-06-04 18:22:00,
2013-06-04 14:32:00,69.0,49.0,30.18,SSW,211,5.0,0.0,49,0.03,,,-99.99,,2013-06-04 18:32:00,
2013-06-04 14:42:00,69.0,49.0,30.18,SSW,211,5.0,0.0,49,0.03,,,-99.99,,2013-06-04 18:42:00,
2013-06-04 14:53:00,69.0,49.0,30.18,SSW,211,5.0,0.0,49,0.03,,,-99.99,,2013-06-04 18:53:00,
2013-06-04 15:02:00,69.0,49.0,30.18,SSW,211,5.0,0.0,49,0.03,,,-99.99,,2013-06-04 19:02:00,
2013-06-04 15:12:00,69.0,49.0,30.18,SSW,211,5.0,0.0,49,0.03,,,-99.99,,2013-06-04 19:12:00,
2013-06-04 15:22:00,69.0,48.0,30.17,NNW,328,7.0,0.0,48,0.03,,,-99.99,,2013-06-04 19:22:00,
2013-06-04 15:33:00,71.0,50.0,30.17,NNW,347,2.0,0.0,48,0.03,,,-99.99,,2013-06-04 19:33:00,
2013-06-04 15:42:00,71.0,50.0,30.17,NNW,347,2.0,0.0,48,0.03,,,-99.99,,2013-06-04 19:42:00,
2013-06-04 15:52:00,71.0,50.0,30.17,NNW,347,2.0,0.0,48,0.03,,,-99.99,,2013-06-04 19:52:00,
2013-06-04 16:03:00,71.0,50.0,30.17,NNW,347,2.0,0.0,48,0.03,,,-99.99,,2013-06-04 20:03:00,
2013-06-04 16:22:00,69.0,48.0,30.17,SW,231,3.0,0.0,48,0.03,,,-99.99,,2013-06-04 20:22:00,
2013-06-04 16:32:00,69.0,48.0,30.17,SW,231,3.0,0.0,48,0.03,,,-99.99,,2013-06-04 20:32:00,
2013-06-04 16:42:00,69.0,48.0,30.17,SW,231,3.0,0.0,48,0.03,,,-99.99,,2013-06-04 20:42:00,
2013-06-04 17:02:00,69.0,49.0,30.16,NW,321,0.0,0.0,49,0.03,,,-99.99,,2013-06-04 21:02:00,
2013-06-04 17:12:00,69.0,49.0,30.16,NW,321,0.0,0.0,49,0.03,,,-99.99,,2013-06-04 21:12:00,
2013-06-04 17:22:00,70.0,49.0,30.15,NE,46,3.0,0.0,48,0.03,,,-99.99,,2013-06-04 21:22:00,
2013-06-04 17:33:00,70.0,50.0,30.15,NNW,338,6.0,0.0,49,0.03,,,-99.99,,2013-06-04 21:33:00,
2013-06-04 17:42:00,70.0,50.0,30.15,NNW,338,6.0,0.0,49,0.03,,,-99.99,,2013-06-04 21:42:00,
2013-06-04 17:53:00,70.0,49.0,30.15,NW,314,2.0,0.0,47,0.03,,,-99.99,,2013-06-04 21:53:00,
2013-06-04 18:02:00,70.0,49.0,30.15,West,278,3.0,0.0,47,0.03,,,-99.99,,2013-06-04 22:02:00,
2013-06-04 18:13:00,70.0,49.0,30.15,West,278,3.0,0.0,47,0.03,,,-99.99,,2013-06-04 22:13:00,
2013-06-04 18:22:00,70.0,49.0,30.15,West,278,3.0,0.0,47,0.03,,,-99.99,,2013-06-04 22:22:00,
2013-06-04 18:32:00,69.0,52.0,30.14,North,3,8.0,0.0,54,0.03,,,-99.99,,2013-06-04 22:32:00,
2013-06-04 18:42:00,69.0,52.0,30.14,North,3,8.0,0.0,54,0.03,,,-99.99,,2013-06-04 22:42:00,
2013-06-04 18:52:00,68.0,51.0,30.14,NNW,333,13.0,0.0,54,0.03,,,-99.99,,2013-06-04 22:52:00,
2013-06-04 19:02:00,68.0,51.0,30.14,NNW,333,13.0,0.0,54,0.03,,,-99.99,,2013-06-04 23:02:00,
2013-06-04 19:12:00,68.0,51.0,30.14,NNW,333,13.0,0.0,54,0.03,,,-99.99,,2013-06-04 23:12:00,
2013-06-04 19:22:00,67.0,51.0,30.14,NNE,17,9.0,0.0,57,0.03,,,-99.99,,2013-06-04 23:22:00,
2013-06-04 19:32:00,67.0,51.0,30.14,North,3,9.0,0.0,56,0.03,,,-99.99,,2013-06-04 23:32:00,
2013-06-04 19:42:00,67.0,51.0,30.14,North,3,9.0,0.0,56,0.03,,,-99.99,,2013-06-04 23:42:00,
2013-06-04 19:52:00,67.0,51.0,30.14,NNW,338,9.0,0.0,57,0.03,,,-99.99,,2013-06-04 23:52:00,
2013-06-04 20:02:00,67.0,51.0,30.15,North,1,10.0,0.0,56,0.03,,,-99.99,,2013-06-05 00:02:00,
2013-06-04 20:12:00,67.0,51.0,30.15,North,1,10.0,0.0,56,0.03,,,-99.99,,2013-06-05 00:12:00,
2013-06-04 20:22:00,66.0,48.0,30.14,NNE,17,10.0,0.0,53,0.03,,,-99.99,,2013-06-05 00:22:00,
2013-06-04 20:33:00,66.0,48.0,30.14,NNE,17,10.0,0.0,53,0.03,,,-99.99,,2013-06-05 00:33:00,
2013-06-04 20:42:00,66.0,48.0,30.14,NNE,17,10.0,0.0,53,0.03,,,-99.99,,2013-06-05 00:42:00,
2013-06-04 20:52:00,66.0,48.0,30.14,NNE,17,10.0,0.0,53,0.03,,,-99.99,,2013-06-05 00:52:00,
2013-06-04 21:02:00,65.0,49.0,30.14,NNE,30,7.0,0.0,56,0.03,,,-99.99,,2013-06-05 01:02:00,
2013-06-04 21:12:00,65.0,49.0,30.14,NNE,30,7.0,0.0,56,0.03,,,-99.99,,2013-06-05 01:12:00,
2013-06-04 21:22:00,65.0,49.0,30.14,North,8,8.0,0.0,56,0.03,,,-99.99,,2013-06-05 01:22:00,
2013-06-04 21:32:00,63.0,48.0,30.14,NNE,27,7.0,0.0,58,0.03,,,-99.99,,2013-06-05 01:32:00,
2013-06-04 21:42:00,63.0,48.0,30.14,NNE,27,7.0,0.0,58,0.03,,,-99.99,,2013-06-05 01:42:00,
2013-06-04 21:52:00,63.0,48.0,30.14,NNE,27,7.0,0.0,58,0.03,,,-99.99,,2013-06-05 01:52:00,
2013-06-04 22:02:00,63.0,49.0,30.14,NE,42,6.0,0.0,60,0.03,,,-99.99,,2013-06-05 02:02:00,
2013-06-04 22:12:00,63.0,49.0,30.14,NE,42,6.0,0.0,60,0.03,,,-99.99,,2013-06-05 02:12:00,
2013-06-04 22:22:00,62.0,48.0,30.15,NNE,21,5.0,0.0,61,0.03,,,-99.99,,2013-06-05 02:22:00,
2013-06-04 22:32:00,62.0,48.0,30.15,NE,45,5.0,0.0,61,0.03,,,-99.99,,2013-06-05 02:32:00,
2013-06-04 22:42:00,62.0,48.0,30.15,NE,45,5.0,0.0,61,0.03,,,-99.99,,2013-06-05 02:42:00,
2013-06-04 22:52:00,62.0,48.0,30.15,NE,45,5.0,0.0,61,0.03,,,-99.99,,2013-06-05 02:52:00,
2013-06-04 23:02:00,62.0,49.0,30.15,ENE,66,6.0,0.0,63,0.03,,,-99.99,,2013-06-05 03:02:00,
2013-06-04 23:12:00,62.0,49.0,30.15,ENE,66,6.0,0.0,63,0.03,,,-99.99,,2013-06-05 03:12:00,
2013-06-04 23:22:00,62.0,49.0,30.15,NE,34,6.0,0.0,63,0.03,,,-99.99,,2013-06-05 03:22:00,
2013-06-04 23:33:00,62.0,49.0,30.16,NE,45,5.0,0.0,63,0.03,,,-99.99,,2013-06-05 03:33:00,
2013-06-04 23:43:00,62.0,49.0,30.16,NE,45,5.0,0.0,63,0.03,,,-99.99,,2013-06-05 03:43:00,
2013-06-04 23:53:00,62.0,49.0,30.16,NE,45,5.0,0.0,63,0.03,,,-99.99,,2013-06-05 03:53:00,